Weather History for KAMA - November, 2011

Change the Weather History Date:

Wednesday, November 23, 2011

  Actual Average Record
Temperature  
Mean Temperature 52 °F 43 °F  
Max Temperature 70 °F 56 °F 79 °F (1965)
Min Temperature 33 °F 29 °F 3 °F (1957)
Degree Days  
Heating Degree Days 13 22  
Month to date heating degree days 365 396  
Since 1 July heating degree days 591 676  
Cooling Degree Days 0 0  
Month to date cooling degree days 0 0  
Year to date cooling degree days 2220 1398  
Growing Degree Days 2 (Base 50)    
Moisture  
Dew Point 32 °F    
Average Humidity 60    
Maximum Humidity 100    
Minimum Humidity 19    
Precipitation  
Precipitation 0.00 in 0.02 in 0.65 in (2004)
Month to date precipitation 0.54 0.66  
Year to date precipitation 5.38 19.51  
Snow  
Snow 0.00 in 0.10 in 1.10 in (2013)
Month to date snowfall 0.0 1.7  
Since 1 July snowfall 3.1 1.9  
Since 1 September snowfall 3.1 1.9  
Snow Depth 0.00 in    
Sea Level Pressure  
Sea Level Pressure 30.21 in    
Wind  
Wind Speed 12 mph (SSW)    
Max Wind Speed 22 mph    
Max Gust Speed 25 mph    
Visibility 10 miles    
Events      
T = Trace of Precipitation, MM = Missing Value Source: NWS Daily Summary

Daily Weather History Graph

Daily Weather History Graph

Search for Another Location

Airport or City:

Trip Planner

Search our weather history database for the weather conditions in past years. The results will help you decide how hot, cold, wet, or windy it might be!

Date:

Astronomy

Nov. 23, 2011 Rise Set
Actual Time 7:29 AM CST 5:36 PM CST
Civil Twilight 7:01 AM CST 6:04 PM CST
Nautical Twilight 6:30 AM CST 6:35 PM CST
Astronomical Twilight 6:00 AM CST 7:05 PM CST
Moon 5:37 AM CST (11/23) 4:19 PM CST (11/23)
Length of Visible Light 11h 02m
Length of Day
10h 07m
Waning Crescent, 3% of the Moon is Illuminated
Nov 23
Waning Crescent
Nov 25
New
Dec 2
First Quarter
Dec 10
Full
Dec 17
Last Quarter

Hourly Weather History & Observations

Time (CST) Temp. Windchill Dew Point Humidity Pressure Visibility Wind Dir Wind Speed Gust Speed Precip Events Conditions
12:53 AM 37.0 °F 30.4 °F 30.9 °F 79% 30.23 in 10.0 mi SSW 9.2 mph - N/A   Clear
1:53 AM 36.0 °F 28.5 °F 30.9 °F 82% 30.22 in 10.0 mi SSW 10.4 mph - N/A   Clear
2:53 AM 36.0 °F 28.5 °F 30.9 °F 82% 30.23 in 10.0 mi SSW 10.4 mph - N/A   Clear
3:53 AM 37.0 °F 29.8 °F 32.0 °F 82% 30.22 in 10.0 mi SSW 10.4 mph - N/A   Clear
4:53 AM 39.0 °F 31.8 °F 36.0 °F 89% 30.22 in 10.0 mi SSW 11.5 mph - N/A   Clear
5:53 AM 37.4 °F 31.4 °F 35.6 °F 93% 30.26 in 8.0 mi SW 8.1 mph - N/A   Clear
6:53 AM 37.9 °F 31.5 °F 36.0 °F 93% 30.25 in 8.0 mi SW 9.2 mph - N/A   Clear
7:53 AM 34.0 °F 28.8 °F 33.1 °F 96% 30.28 in 6.0 mi SW 5.8 mph - N/A   Clear
8:53 AM 41.0 °F 38.0 °F 37.9 °F 89% 30.27 in 9.0 mi SW 4.6 mph - N/A   Clear
9:53 AM 48.9 °F - 39.9 °F 71% 30.27 in 10.0 mi SW 3.5 mph - N/A   Clear
10:53 AM 57.9 °F - 30.9 °F 36% 30.25 in 10.0 mi SW 13.8 mph - N/A   Clear
11:53 AM 62.1 °F - 30.9 °F 31% 30.22 in 10.0 mi SSW 13.8 mph - N/A   Clear
12:53 PM 66.0 °F - 28.9 °F 25% 30.19 in 10.0 mi SSW 16.1 mph - N/A   Clear
1:53 PM 69.1 °F - 27.0 °F 21% 30.16 in 10.0 mi SSW 19.6 mph - N/A   Clear
2:53 PM 69.8 °F - 26.6 °F 20% 30.20 in 10.0 mi SSW 18.4 mph 25.3 mph N/A   Clear
3:53 PM 68.0 °F - 25.0 °F 20% 30.13 in 10.0 mi South 18.4 mph - N/A   Clear
4:53 PM 64.9 °F - 27.0 °F 24% 30.14 in 10.0 mi South 12.7 mph - N/A   Clear
5:53 PM 60.1 °F - 28.0 °F 30% 30.15 in 10.0 mi South 10.4 mph - N/A   Clear
6:53 PM 57.0 °F - 28.0 °F 33% 30.17 in 10.0 mi South 12.7 mph - N/A   Clear
7:53 PM 54.0 °F - 30.0 °F 40% 30.20 in 10.0 mi SSE 12.7 mph - N/A   Clear
8:53 PM 51.8 °F - 32.0 °F 47% 30.22 in 10.0 mi South 15.0 mph - N/A   Clear
9:53 PM 51.1 °F - 33.1 °F 50% 30.17 in 10.0 mi South 16.1 mph - N/A   Clear
10:53 PM 50.0 °F - 33.1 °F 52% 30.15 in 10.0 mi South 19.6 mph - N/A   Clear
11:53 PM 46.0 °F 40.2 °F 34.0 °F 63% 30.14 in 10.0 mi South 12.7 mph - N/A   Clear